This demonstration page uses our WeatherBlox Daily Observations layout. Learn more.

Left ArrowRight Arrow

Hourly Observations for July 26, 2022

Temp ( °F °C ) Dew Point ( °F °C ) Humidity (%) Winds ( mph kmh ) Pressure ( in mb ) Visibility ( mi km ) Precip ( " mm )
12:53 am 00:53 Clear 91 32.8 63 17.2 39 39 SSE 15 24 29.91 1013 10 16 0.00 0.00
1:53 am 01:53 Clear 89 31.7 65 18.3 45 45 S 10 17 29.92 1013 10 16 0.00 0.00
2:53 am 02:53 Clear 88 31.1 65 18.3 46 46 S 12 19 29.92 1013 10 16 0.00 0.00
3:53 am 03:53 Clear 87 30.6 64 17.8 46 46 SSW 9 15 29.92 1013 10 16 0.00 0.00
4:53 am 04:53 Mostly Clear 85 29.4 63 17.2 48 48 S 9 15 29.93 1014 10 16 0.00 0.00
5:53 am 05:53 Mostly Clear 84 28.9 64 17.8 51 51 S 9 15 29.94 1014 10 16 0.00 0.00
6:53 am 06:53 Partly Cloudy 82 27.8 64 17.8 55 55 S 10 17 29.96 1015 10 16 0.00 0.00
7:53 am 07:53 Partly Cloudy 82 27.8 66 18.9 58 58 S 9 15 29.97 1015 10 16 0.00 0.00
8:53 am 08:53 Mostly Sunny 85 29.4 66 18.9 53 53 S 8 13 29.99 1016 10 16 0.00 0.00
9:53 am 09:53 Mostly Sunny 88 31.1 64 17.8 45 45 S 9 15 29.99 1016 10 16 0.00 0.00
10:53 am 10:53 Mostly Sunny 91 32.8 63 17.2 39 39 S 8 13 29.98 1015 10 16 0.00 0.00
11:53 am 11:53 Mostly Sunny 95 35 63 17.2 35 35 S 10 17 29.97 1015 10 16 0.00 0.00
12:53 pm 12:53 Mostly Sunny 97 36.1 60 15.6 29 29 SSW 9 15 29.95 1014 10 16 0.00 0.00
1:53 pm 13:53 Mostly Sunny 99 37.2 60 15.6 28 28 S 12 19 29.93 1014 10 16 0.00 0.00
2:53 pm 14:53 Partly Cloudy 100 37.8 60 15.6 27 27 SSW 10 17 29.91 1013 10 16 0.00 0.00
3:53 pm 15:53 Partly Cloudy 101 38.3 59 15 25 25 S 13 20 29.89 1012 10 16 0.00 0.00
4:53 pm 16:53 Partly Cloudy 101 38.3 58 14.4 24 24 SSW 8 13 29.86 1011 10 16 0.00 0.00
5:53 pm 17:53 Partly Cloudy 101 38.3 62 16.7 28 28 SSW 10 17 29.85 1011 10 16 0.00 0.00
6:53 pm 18:53 Partly Cloudy 100 37.8 61 16.1 28 28 S 12 19 29.83 1010 10 16 0.00 0.00
7:53 pm 19:53 Partly Cloudy 99 37.2 61 16.1 29 29 S 8 13 29.84 1010 10 16 0.00 0.00
8:53 pm 20:53 Partly Cloudy 98 36.7 63 17.2 32 32 SE 13 20 29.85 1011 10 16 0.00 0.00
9:53 pm 21:53 Partly Cloudy 96 35.6 64 17.8 35 35 SE 9 15 29.88 1012 10 16 0.00 0.00
10:53 pm 22:53 Mostly Cloudy 94 34.4 65 18.3 38 38 SSE 9 15 29.89 1012 10 16 0.00 0.00
11:53 pm 23:53 Mostly Cloudy 93 33.9 65 18.3 40 40 S 10 17 29.90 1013 10 16 0.00 0.00

Powered by AerisWeather